CW9540 Weather Reports


Display with metric or nautical units.
time (UTC)temp
F
wind
direction
speed
MPH
gust
MPH
rain 1hr
in
rain 24hr
in
rain mn
in
humidity
%
barometer
mb
20260902114504 69 121 0.0 1.0 0.00 0.00 0.00 95 1012.3
20260902114004 69 359 1.0 2.0 0.00 0.00 0.00 96 1012.3
20260902113503 69 76 0.0 1.0 0.00 0.00 0.00 96 1011.6
20260902113058 68 0 0.0 1.0 0.00 0.00 0.00 95 1013.2
20260902113004 69 124 0.0 1.0 0.00 0.00 0.00 96 1011.3
20260902112504 69 358 0.0 1.0 0.00 0.00 0.00 96 1011.3
20260902112004 68 57 0.0 1.0 0.00 0.00 0.00 96 1011.3
20260902111600 68 0 0.0 1.0 0.00 0.00 0.00 95 1013.4
20260902111503 68 78 0.0 1.0 0.00 0.00 0.00 96 1011.6
20260902110503 68 147 0.0 1.0 0.00 0.00 0.00 96 1011.7
20260902110059 68 0 0.0 1.0 0.00 0.00 0.00 95 1013.6
20260902110005 68 176 0.0 1.0 0.00 0.00 0.00 96 1011.7
20260902105003 68 168 0.0 1.0 0.00 0.00 0.00 96 1011.4
20260902104552 68 0 0.0 2.0 0.00 0.00 0.00 95 1013.4
20260902104503 68 128 1.0 2.0 0.00 0.00 0.00 95 1011.5
20260902104004 68 168 1.0 2.0 0.00 0.00 0.00 95 1011.7
20260902103504 68 271 1.0 2.0 0.00 0.00 0.00 96 1011.6
20260902103109 68 0 0.0 2.0 0.00 0.00 0.00 95 1013.4
20260902102503 68 90 0.0 1.0 0.00 0.00 0.00 95 1011.4
20260902101554 68 178 0.0 2.0 0.00 0.00 0.00 95 1013.4
20260902101504 68 100 0.0 2.0 0.00 0.00 0.00 95 1011.5
20260902100052 68 117 0.0 2.0 0.00 0.00 0.00 95 1013.6
20260902100003 68 95 0.0 1.0 0.00 0.00 0.00 95 1011.7
20260902095503 68 230 1.0 2.0 0.00 0.00 0.00 95 1011.9
20260902095004 68 220 0.0 1.0 0.00 0.00 0.00 95 1011.8
20260902094559 68 0 0.0 1.0 0.00 0.00 0.00 95 1013.8
20260902094004 68 126 0.0 1.0 0.00 0.00 0.00 95 1012.1
20260902093503 68 123 0.0 1.0 0.00 0.00 0.00 95 1012.4
20260902093109 68 0 0.0 1.0 0.00 0.00 0.00 95 1014.1
20260902093003 68 78 0.0 1.0 0.00 0.00 0.00 95 1012.3
20260902092504 68 83 0.0 0.0 0.00 0.00 0.00 95 1012.4
20260902092004 68 217 0.0 1.0 0.00 0.00 0.00 95 1012.3
20260902091556 68 0 0.0 2.0 0.00 0.00 0.00 95 1014.1
20260902091504 68 248 0.0 2.0 0.00 0.00 0.00 95 1012.1
20260902091003 68 178 1.0 2.0 0.00 0.00 0.00 95 1012.2
20260902090104 68 0 0.0 1.0 0.00 0.00 0.00 95 1014.1
20260902085503 69 100 0.0 0.0 0.00 0.00 0.00 95 1012.4
20260902085004 69 165 0.0 1.0 0.00 0.00 0.00 95 1012.4
20260902084552 68 0 0.0 2.0 0.00 0.01 0.00 94 1014.2
20260902084504 68 16 0.0 1.0 0.00 0.00 0.00 95 1012.4
20260902084004 69 175 0.0 1.0 0.00 0.00 0.00 95 1012.4
20260902083503 69 147 0.0 2.0 0.00 0.00 0.00 95 1012.6
20260902083054 68 0 0.0 1.0 0.00 0.01 0.00 94 1014.5
20260902083003 69 12 1.0 1.0 0.00 0.00 0.00 95 1012.7
20260902082504 69 54 0.0 1.0 0.00 0.01 0.00 95 1012.7
20260902082004 69 80 0.0 1.0 0.00 0.01 0.00 95 1012.8
20260902081556 68 0 0.0 1.0 0.00 0.01 0.00 94 1014.6
20260902081504 69 250 0.0 1.0 0.00 0.01 0.00 95 1012.9
20260902081004 69 151 0.0 1.0 0.00 0.01 0.00 95 1012.8
20260902080503 69 135 0.0 1.0 0.00 0.01 0.00 95 1012.7
20260902080104 68 0 0.0 1.0 0.00 0.01 0.00 94 1014.5
20260902080003 69 7 0.0 1.0 0.00 0.01 0.00 95 1012.7
20260902075504 69 46 0.0 1.0 0.00 0.03 0.00 95 1012.7
20260902075004 69 62 0.0 1.0 0.00 0.03 0.00 95 1012.8
20260902074612 68 0 0.0 1.0 0.00 0.03 0.00 94 1014.6
20260902074503 69 92 0.0 0.0 0.00 0.03 0.00 95 1012.8
20260902074003 69 93 0.0 1.0 0.00 0.03 0.00 95 1012.8
20260902073504 69 74 0.0 1.0 0.00 0.03 0.00 95 1012.8
20260902073243 69 0 0.0 1.0 0.00 0.03 0.00 94 1014.6
20260902073004 69 85 0.0 0.0 0.00 0.03 0.00 95 1012.9
20260902071553 69 0 0.0 1.0 0.00 0.03 0.00 94 1014.6
20260902071503 69 70 0.0 0.0 0.00 0.03 0.00 95 1012.9
20260902071003 69 69 0.0 1.0 0.00 0.03 0.00 94 1013.0
20260902070504 69 67 0.0 1.0 0.00 0.03 0.00 94 1013.0
20260902070059 69 0 0.0 1.0 0.00 0.03 0.00 94 1014.7
20260902070005 69 134 0.0 1.0 0.00 0.03 0.00 94 1013.0
20260902065503 69 230 0.0 1.0 0.00 0.03 0.00 94 1013.0
20260902065003 69 272 1.0 2.0 0.00 0.03 0.00 94 1012.8
20260902064554 69 0 0.0 1.0 0.00 0.03 0.00 94 1014.5
20260902064504 69 231 0.0 1.0 0.00 0.03 0.00 94 1012.7
20260902064004 69 91 0.0 1.0 0.00 0.03 0.00 94 1012.6
20260902063504 69 33 0.0 1.0 0.00 0.03 0.00 94 1012.6
20260902063056 69 0 0.0 1.0 0.00 0.03 0.00 94 1014.5
20260902063004 69 106 0.0 1.0 0.00 0.03 0.00 94 1012.8
20260902061555 69 0 0.0 1.0 0.00 0.03 0.00 94 1014.9
20260902061504 70 87 0.0 1.0 0.00 0.03 0.00 94 1013.1
20260902061004 70 148 0.0 1.0 0.00 0.03 0.00 94 1013.1
20260902060100 69 0 0.0 1.0 0.00 0.03 0.00 93 1014.7
20260902060003 70 41 0.0 1.0 0.00 0.03 0.00 94 1013.1
20260902055003 70 23 0.0 0.0 0.00 0.04 0.00 94 1013.1
20260902054554 70 0 0.0 1.0 0.00 0.06 0.00 93 1014.9
20260902054504 70 167 1.0 1.0 0.00 0.04 0.00 94 1013.1
20260902054004 70 170 0.0 1.0 0.00 0.04 0.00 94 1013.2
20260902053504 70 55 0.0 1.0 0.00 0.04 0.00 94 1013.2
20260902053127 70 0 0.0 1.0 0.00 0.06 0.00 93 1014.9
20260902053004 70 14 0.0 1.0 0.00 0.04 0.00 94 1013.1
20260902052504 70 18 0.0 1.0 0.00 0.06 0.00 94 1013.0
20260902051557 70 0 0.0 1.0 0.00 0.06 0.00 93 1014.9
20260902051503 71 168 0.0 1.0 0.00 0.06 0.00 93 1013.1
20260902051004 71 63 0.0 1.0 0.00 0.06 0.00 93 1013.1
20260902050504 71 180 0.0 1.0 0.00 0.06 0.00 93 1013.1
20260902050103 70 0 0.0 1.0 0.00 0.06 0.00 93 1015.0
20260902045504 71 245 0.0 0.0 0.00 0.06 0.00 93 1013.1
20260902044555 71 0 0.0 2.0 0.00 0.06 0.00 93 1014.9
20260902044004 71 48 0.0 1.0 0.00 0.06 0.00 93 1013.1
20260902043113 71 0 0.0 1.0 0.00 0.06 0.00 93 1014.9
20260902043004 72 323 0.0 1.0 0.00 0.06 0.00 93 1013.1
20260902042003 72 57 0.0 1.0 0.00 0.06 0.00 93 1013.1
20260902041555 71 0 0.0 1.0 0.00 0.06 0.00 92 1015.0
20260902041505 72 132 0.0 1.0 0.00 0.06 0.00 93 1013.1
20260902041003 72 69 0.0 0.0 0.00 0.06 0.00 93 1013.1
20260902040503 72 69 0.0 1.0 0.00 0.06 0.00 93 1013.1
20260902040058 71 0 0.0 1.0 0.00 0.06 0.00 92 1015.0
20260902040004 72 35 0.0 1.0 0.00 0.06 0.00 93 1013.0
20260902035504 72 87 0.0 1.0 0.00 0.06 0.06 93 1013.1
20260902035004 72 58 0.0 1.0 0.00 0.06 0.06 93 1013.1
20260902034607 72 0 0.0 2.0 0.00 0.06 0.06 92 1015.1
20260902034504 72 235 1.0 2.0 0.00 0.06 0.06 93 1013.1
20260902034003 72 223 1.0 2.0 0.00 0.06 0.06 93 1013.2
20260902033503 72 284 0.0 1.0 0.00 0.06 0.06 92 1013.1
20260902033105 72 0 0.0 1.0 0.00 0.06 0.06 92 1014.9
20260902033004 72 10 0.0 1.0 0.00 0.06 0.06 92 1013.0
20260902032504 72 65 0.0 1.0 0.00 0.06 0.06 92 1013.0
20260902032004 72 98 0.0 1.0 0.00 0.06 0.06 92 1013.0
20260902031558 72 0 0.0 2.0 0.00 0.06 0.06 92 1014.9
20260902031504 72 59 0.0 1.0 0.00 0.06 0.06 92 1013.0
20260902031003 72 48 1.0 2.0 0.00 0.06 0.06 92 1013.2
20260902030503 72 267 0.0 2.0 0.00 0.06 0.06 92 1013.1
20260902030103 72 56 0.0 1.0 0.00 0.06 0.06 91 1015.0
20260902025004 72 49 0.0 1.0 0.00 0.06 0.06 92 1013.0
20260902024608 72 0 0.0 1.0 0.00 0.06 0.06 91 1014.9
20260902024504 72 46 0.0 1.0 0.00 0.06 0.06 91 1013.1
20260902024003 73 41 0.0 1.0 0.00 0.06 0.06 91 1013.1
20260902023503 73 329 0.0 1.0 0.00 0.06 0.06 91 1013.2
20260902023103 72 0 0.0 2.0 0.00 0.06 0.06 90 1015.0
20260902023003 73 154 0.0 2.0 0.00 0.06 0.06 91 1013.2
20260902022503 73 177 1.0 1.0 0.00 0.06 0.06 91 1013.1
20260902022004 73 68 0.0 1.0 0.00 0.06 0.06 91 1013.1
20260902021555 73 0 0.0 1.0 0.00 0.06 0.06 90 1014.9
20260902021504 73 66 0.0 1.0 0.00 0.06 0.06 91 1013.2
20260902021003 73 79 0.0 1.0 0.00 0.06 0.06 91 1013.2
20260902020503 73 59 1.0 1.0 0.00 0.06 0.06 91 1013.4
20260902020100 73 0 0.0 1.0 0.00 0.06 0.06 90 1015.1
20260902020003 73 18 0.0 1.0 0.00 0.06 0.06 91 1013.3
20260902015503 73 60 0.0 1.0 0.00 0.06 0.06 91 1013.4
20260902015003 73 353 0.0 1.0 0.00 0.06 0.06 91 1013.3
20260902014558 73 0 0.0 2.0 0.00 0.06 0.06 90 1015.1
20260902014503 73 85 0.0 0.0 0.00 0.06 0.06 91 1013.2
20260902013056 73 0 0.0 1.0 0.00 0.06 0.06 90 1015.1
20260902013003 73 49 0.0 1.0 0.00 0.06 0.06 91 1013.2
20260902012503 73 26 0.0 1.0 0.00 0.06 0.06 91 1013.2
20260902012003 73 41 0.0 1.0 0.00 0.06 0.06 91 1013.0
20260902011555 73 46 0.0 2.0 0.00 0.06 0.06 90 1015.1
20260902011504 74 19 0.0 2.0 0.00 0.06 0.06 90 1013.1
20260902011004 74 15 0.0 1.0 0.00 0.06 0.06 90 1013.0
20260902010056 73 0 0.0 1.0 0.00 0.06 0.06 90 1014.9
20260902010003 74 71 0.0 1.0 0.00 0.06 0.06 90 1013.0
20260902004600 73 0 0.0 1.0 0.00 0.06 0.06 89 1014.5
20260902004504 74 61 0.0 0.0 0.00 0.06 0.06 90 1012.6
20260902004004 74 67 0.0 0.0 0.00 0.06 0.06 89 1012.4
20260902003504 74 90 0.0 1.0 0.00 0.06 0.06 90 1012.3
20260902003101 74 0 0.0 1.0 0.00 0.06 0.06 89 1014.1
20260902003004 74 87 0.0 1.0 0.00 0.06 0.06 90 1012.2
20260902002504 74 86 0.0 0.0 0.00 0.06 0.06 89 1012.1
20260902002003 74 57 0.0 1.0 0.00 0.06 0.06 89 1012.0
20260902001559 74 0 0.0 1.0 0.00 0.06 0.06 88 1013.8
20260902001503 74 278 0.0 1.0 0.00 0.06 0.06 88 1011.9
20260902001003 75 97 1.0 1.0 0.00 0.06 0.06 88 1011.8
20260902000503 75 81 0.0 1.0 0.00 0.06 0.06 88 1011.8
20260902000056 74 0 0.0 1.0 0.00 0.06 0.06 88 1013.7
20260902000004 75 80 0.0 1.0 0.00 0.06 0.06 88 1011.8
20260901235004 76 8 0.0 1.0 0.00 0.06 0.06 86 1011.8
20260901234559 76 0 0.0 1.0 0.00 0.06 0.06 85 1013.7
20260901234504 76 54 0.0 1.0 0.00 0.06 0.06 85 1011.8
20260901234004 76 288 0.0 1.0 0.00 0.06 0.06 85 1011.9
20260901233103 76 0 0.0 1.0 0.00 0.06 0.06 84 1013.7
20260901233004 77 87 0.0 1.0 0.00 0.06 0.06 85 1011.9
20260901232503 77 52 0.0 1.0 0.00 0.06 0.06 85 1011.9
20260901231607 77 0 0.0 2.0 0.00 0.06 0.06 83 1013.8
20260901231503 78 20 0.0 1.0 0.00 0.06 0.06 83 1012.0
20260901231004 78 12 1.0 2.0 0.00 0.06 0.06 82 1012.0
20260901230504 78 28 0.0 1.0 0.00 0.06 0.06 83 1012.1
20260901230054 78 0 0.0 1.0 0.00 0.06 0.06 82 1014.0
20260901230004 78 109 0.0 1.0 0.00 0.06 0.06 83 1012.1
20260901225004 78 287 0.0 1.0 0.00 0.06 0.06 82 1012.1
20260901224555 78 0 0.0 2.0 0.00 0.07 0.06 81 1014.0
20260901224003 79 17 0.0 1.0 0.00 0.06 0.06 80 1012.1
20260901223503 79 35 1.0 2.0 0.00 0.06 0.06 80 1012.1
20260901223055 79 0 0.0 2.0 0.00 0.07 0.06 79 1014.0
20260901223005 79 5 1.0 2.0 0.00 0.06 0.06 79 1012.1
20260901222004 80 50 0.0 2.0 0.00 0.06 0.06 80 1011.9
20260901221556 80 28 0.0 2.0 0.00 0.07 0.06 79 1013.8
20260901221503 80 0 0.0 2.0 0.00 0.06 0.06 79 1012.0
20260901221003 81 333 1.0 2.0 0.00 0.07 0.06 77 1011.9
20260901220503 81 335 1.0 2.0 0.00 0.07 0.06 76 1011.9
20260901220118 82 0 0.0 2.0 0.00 0.07 0.06 75 1013.8
20260901220004 82 1 1.0 2.0 0.00 0.07 0.06 75 1011.8
20260901215503 83 17 1.0 2.0 0.00 0.07 0.06 73 1011.8
20260901215003 84 62 1.0 2.0 0.00 0.07 0.06 73 1011.9
20260901214556 83 0 1.0 3.0 0.00 0.07 0.06 74 1013.7
20260901214503 83 78 1.0 3.0 0.00 0.07 0.06 76 1011.8
20260901214004 82 322 1.0 2.0 0.00 0.07 0.06 77 1011.9
20260901213504 82 317 1.0 2.0 0.00 0.07 0.06 76 1011.7
20260901213058 82 13 0.0 2.0 0.00 0.07 0.06 76 1013.6
20260901213004 83 339 1.0 2.0 0.00 0.07 0.06 76 1011.7
20260901212503 81 43 1.0 2.0 0.00 0.07 0.06 77 1011.7
20260901212003 83 353 1.0 2.0 0.00 0.07 0.06 74 1011.7
20260901211603 84 344 0.0 3.0 0.00 0.07 0.06 72 1013.7
20260901211004 86 335 1.0 2.0 0.00 0.07 0.06 70 1011.7
20260901210504 84 70 1.0 2.0 0.00 0.07 0.06 74 1011.7
20260901210052 83 0 1.0 3.0 0.00 0.07 0.06 73 1013.6
20260901210003 84 330 1.0 2.0 0.00 0.07 0.06 73 1011.7
20260901205503 86 310 1.0 2.0 0.00 0.07 0.06 70 1011.7
20260901205004 84 19 2.0 3.0 0.00 0.07 0.06 72 1011.7
20260901204556 86 331 0.0 2.0 0.00 0.14 0.06 68 1013.5
20260901204504 86 103 1.0 2.0 0.00 0.07 0.06 69 1011.6
20260901204004 84 63 1.0 2.0 0.00 0.08 0.06 74 1011.8
20260901203504 83 18 1.0 2.0 0.00 0.08 0.06 74 1012.0
20260901203108 83 107 1.0 2.0 0.00 0.14 0.06 72 1013.9
20260901203004 84 73 1.0 2.0 0.00 0.08 0.06 74 1012.1
20260901202504 85 35 1.0 2.0 0.00 0.09 0.06 71 1011.9
20260901202004 87 318 0.0 2.0 0.00 0.10 0.06 68 1011.8
20260901201557 87 46 0.0 4.0 0.00 0.14 0.06 67 1013.7
20260901201504 88 323 1.0 2.0 0.00 0.10 0.06 67 1011.8
20260901200052 87 283 1.0 3.0 0.00 0.14 0.06 68 1013.8
20260901200003 87 77 1.0 3.0 0.00 0.14 0.06 69 1011.8
20260901195004 84 319 1.0 3.0 0.00 0.14 0.06 72 1011.7
20260901194604 83 331 1.0 3.0 0.00 0.33 0.06 72 1013.7
20260901194504 83 313 1.0 3.0 0.00 0.15 0.06 72 1011.7
20260901194003 85 297 1.0 3.0 0.00 0.16 0.06 68 1011.7
20260901193503 87 313 1.0 3.0 0.00 0.17 0.06 70 1011.7
20260901193105 85 229 1.0 3.0 0.00 0.33 0.06 69 1013.7
20260901193004 86 284 1.0 3.0 0.00 0.18 0.06 68 1011.8
20260901192503 88 64 1.0 3.0 0.00 0.18 0.06 65 1011.9
20260901191554 87 344 0.0 3.0 0.00 0.33 0.06 67 1013.6
20260901191004 87 38 1.0 3.0 0.00 0.24 0.06 67 1011.8
20260901190052 83 98 0.0 3.0 0.00 0.33 0.06 71 1013.8
20260901190004 83 46 1.0 2.0 0.00 0.33 0.06 73 1012.0
20260901185003 84 30 1.0 2.0 0.00 0.34 0.06 71 1012.1
20260901184601 83 0 0.0 3.0 0.00 0.52 0.06 71 1013.9
20260901184503 84 51 1.0 2.0 0.00 0.34 0.06 72 1011.9
20260901184004 82 71 1.0 2.0 0.00 0.35 0.06 76 1012.0
20260901183504 82 68 1.0 3.0 0.00 0.37 0.06 78 1011.9
20260901183056 80 63 1.0 5.0 0.00 0.52 0.06 78 1013.7
20260901183004 81 323 2.0 5.0 0.00 0.41 0.06 80 1011.9
20260901182504 82 324 1.0 3.0 0.00 0.45 0.06 79 1011.8
20260901182004 82 3 2.0 3.0 0.00 0.46 0.06 76 1011.8
20260901181555 81 1 1.0 5.0 0.00 0.52 0.06 79 1013.6
20260901181003 83 10 2.0 5.0 0.00 0.52 0.06 75 1011.7
20260901180503 83 34 2.0 3.0 0.00 0.52 0.06 76 1011.7
20260901180105 81 1 1.0 4.0 0.00 0.52 0.06 78 1013.6
20260901175503 82 60 1.0 3.0 0.00 0.54 0.06 78 1011.7
20260901174556 81 269 1.0 4.0 0.00 0.57 0.06 79 1013.5
20260901174504 81 37 1.0 3.0 0.00 0.55 0.06 78 1011.7
20260901174004 81 41 1.0 2.0 0.00 0.55 0.06 79 1011.6
20260901173503 81 7 1.0 3.0 0.00 0.55 0.06 78 1011.5
20260901173059 81 1 1.0 4.0 0.00 0.57 0.06 78 1013.2
20260901173003 82 31 1.0 3.0 0.00 0.55 0.06 79 1011.5
20260901172004 80 3 2.0 6.0 0.00 0.55 0.06 80 1011.4
20260901171556 79 0 1.0 4.0 0.00 0.57 0.06 82 1013.1
20260901171504 79 314 1.0 3.0 0.00 0.55 0.06 81 1011.4
20260901171003 81 312 2.0 3.0 0.00 0.55 0.06 80 1011.3
20260901170504 82 317 1.0 3.0 0.00 0.56 0.06 80 1011.3
20260901170121 81 331 1.0 3.0 0.00 0.57 0.06 80 1012.9
20260901170004 81 16 1.0 3.0 0.00 0.57 0.06 81 1011.2
20260901165503 81 353 1.0 2.0 0.00 0.58 0.06 80 1011.1
20260901165004 82 350 1.0 3.0 0.00 0.58 0.06 78 1011.1
20260901164607 82 324 1.0 4.0 0.00 0.61 0.06 79 1012.9
20260901164503 82 9 1.0 3.0 0.00 0.58 0.06 78 1011.2
20260901164003 83 201 1.0 3.0 0.00 0.59 0.06 76 1011.2
20260901163504 83 159 1.0 3.0 0.00 0.59 0.06 75 1011.2
20260901163057 82 0 1.0 4.0 0.00 0.61 0.06 77 1012.9
20260901163004 83 55 1.0 3.0 0.00 0.60 0.06 78 1011.1
20260901162504 83 28 1.0 3.0 0.00 0.60 0.06 75 1011.1
20260901162003 82 71 2.0 5.0 0.00 0.60 0.06 78 1011.1
20260901161559 82 245 1.0 3.0 0.00 0.61 0.06 76 1012.8
20260901161004 82 18 1.0 3.0 0.00 0.61 0.06 78 1010.9
20260901160504 82 340 1.0 6.0 0.00 0.61 0.06 78 1010.9
20260901160057 81 135 1.0 5.0 0.00 0.61 0.06 80 1012.6
20260901160004 82 333 1.0 3.0 0.00 0.61 0.06 79 1010.8
20260901155503 81 336 1.0 5.0 0.00 0.61 0.06 80 1010.8
20260901155003 81 251 2.0 3.0 0.00 0.61 0.06 78 1010.8
20260901154612 81 152 1.0 6.0 0.00 0.66 0.06 79 1012.7
20260901153504 80 206 2.0 5.0 0.00 0.64 0.06 82 1011.1
20260901153108 79 253 1.0 5.0 0.00 0.66 0.06 82 1012.9
20260901153004 80 310 2.0 5.0 0.00 0.64 0.06 82 1011.1
20260901152004 79 177 2.0 5.0 0.00 0.65 0.06 83 1011.2
20260901151600 79 308 1.0 4.0 0.00 0.66 0.06 83 1012.9
20260901151504 79 347 1.0 3.0 0.00 0.65 0.06 85 1011.2
20260901151004 78 241 1.0 3.0 0.00 0.66 0.06 86 1011.2
20260901150503 78 248 2.0 3.0 0.00 0.66 0.06 86 1011.3
20260901150109 77 192 1.0 5.0 0.00 0.66 0.06 88 1012.8
20260901150004 78 276 2.0 3.0 0.00 0.66 0.06 89 1011.2
20260901145504 77 207 2.0 3.0 0.00 0.66 0.06 90 1011.2
20260901145004 76 197 2.0 5.0 0.00 0.66 0.06 92 1011.3
20260901144601 76 161 1.0 3.0 0.00 0.73 0.06 93 1012.9
20260901144504 76 183 2.0 3.0 0.00 0.67 0.06 94 1011.2
20260901143504 75 302 1.0 3.0 0.00 0.68 0.06 95 1011.2
20260901143100 75 163 1.0 4.0 0.00 0.73 0.06 95 1012.8
20260901143003 75 205 1.0 3.0 0.00 0.68 0.06 96 1011.1
20260901141604 74 234 0.0 4.0 0.00 0.73 0.06 97 1012.7
20260901141004 74 161 1.0 3.0 0.00 0.72 0.06 97 1011.0
20260901140504 73 173 2.0 3.0 0.00 0.72 0.06 97 1011.0
20260901140106 73 152 1.0 3.0 0.00 0.73 0.06 97 1012.7
20260901140004 73 159 2.0 3.0 0.00 0.74 0.06 97 1011.1
20260901135004 73 163 1.0 3.0 0.00 0.75 0.06 97 1011.1
20260901134605 72 135 1.0 3.0 0.00 0.82 0.06 97 1012.9
20260901134503 72 141 1.0 2.0 0.00 0.76 0.06 97 1011.1
20260901134004 72 178 1.0 3.0 0.00 0.76 0.06 97 1011.1
20260901133506 72 197 1.0 3.0 0.00 0.77 0.06 97 1011.0
20260901133112 72 117 1.0 3.0 0.00 0.82 0.06 96 1012.8
20260901133003 72 147 1.0 2.0 0.00 0.78 0.06 97 1011.1
20260901132503 72 244 1.0 3.0 0.00 0.78 0.06 97 1011.0
20260901131608 71 245 1.0 2.0 0.00 0.82 0.06 96 1012.9
20260901131504 72 202 1.0 2.0 0.00 0.79 0.06 97 1011.0
20260901131003 71 191 1.0 2.0 0.00 0.79 0.06 97 1011.1
20260901130503 71 199 1.0 2.0 0.00 0.81 0.06 97 1011.3
20260901130106 71 223 1.0 2.0 0.00 0.82 0.06 96 1013.0
20260901130004 71 164 1.0 2.0 0.00 0.82 0.06 97 1011.2
20260901125503 71 173 1.0 2.0 0.00 0.84 0.06 97 1011.3
20260901124609 70 0 0.0 1.0 0.00 0.85 0.06 96 1013.1
20260901124503 71 85 0.0 1.0 0.00 0.84 0.06 97 1011.3
20260901124003 71 162 1.0 1.0 0.00 0.84 0.06 97 1011.3
20260901123504 71 278 1.0 1.0 0.00 0.84 0.06 97 1011.3
20260901123117 70 46 0.0 1.0 0.00 0.85 0.06 96 1013.1
20260901123004 71 135 0.0 1.0 0.00 0.85 0.06 97 1011.3
20260901122504 71 220 1.0 1.0 0.00 0.85 0.06 97 1011.2
20260901121607 70 223 0.0 1.0 0.00 0.85 0.06 96 1012.9
20260901121504 70 310 0.0 1.0 0.00 0.85 0.06 97 1011.2
20260901121004 70 45 0.0 1.0 0.00 0.85 0.06 97 1011.2
20260901120121 69 213 1.0 2.0 0.00 0.85 0.06 96 1012.8
20260901120004 70 173 1.0 2.0 0.00 0.85 0.06 97 1011.1
20260901115503 70 133 0.0 1.0 0.00 0.85 0.06 97 1011.2
20260901115004 70 96 0.0 1.0 0.00 0.85 0.06 97 1011.1
20260901114606 69 0 0.0 1.0 0.00 0.85 0.06 96 1013.0